Location: Greenwich
(51.4790°N, 0.0090°E)
Time: 02:08:04
(UTC+01:00)

Transit 4A - Pass Details

Date: 23 April 2024
Orbit: 871 x 971 km, 66.8° (Epoch: 20 May)

Event Time Altitude Azimuth Distance (km) Brightness Sun altitude
Rises 21:57:08 0° 319° (NW) 3,471 12.8 -14.6°
Reaches altitude 10° 21:59:41 10° 314° (NW) 2,529 11.6 -14.9°
Maximum altitude 22:05:15 48° 242° (WSW) 1,128 8.4 -15.5°
Enters shadow 22:09:33 17° 174° (S) 2,081 9.3 -16.0°
